Regional Weather Roundup
Issued by NWS Sterling, VA

Home | Current Version | Previous Version | Text Only | Print | Product List | Glossary On
Versions: 1 2 3 4 5 6 7 8 9 10 11 12 13 14 15 16 17 18 19 20 21 22 23 24 25 26 27
000
ASUS41 KLWX 190310
RWRLWX

REGIONAL WEATHER ROUNDUP
NATIONAL WEATHER SERVICE BALTIMORE MD/WASHINGTON DC
1000 PM EST WED JAN 18 2017

Note: "FAIR" indicates few or no clouds below 12,000 feet
with no significant weather and/or obstructions to visibility.
 TC=TEMPERATURE CELSIUS

 * =Non NWS site. Station does not report precipitation (e.g. rain,
    snow, etc.), thunder, or fog.

DCZ001-MDZ009-015-VAZ040>042-051-053>054-190400-
WASHINGTON METRO

CITY           SKY/WX    TMP DP  RH WIND       PRES   REMARKS
WASHINGTON NAT MOCLDY    48  36  63 NW14      30.08F
DULLES         MOCLDY    43  34  70 NW3       30.09S
ANDREWS AFB    CLOUDY    47  35  64 NW9       30.06S
FT BELVOIR     PTCLDY    47  34  61 NW10      30.08S
QUANTICO       CLEAR     47  36  65 N13       30.10S
COLLEGE PARK*  CLOUDY    46  34  61 NW5       30.07S
LEESBURG*      CLOUDY    45  39  81 MISG      30.09S
MANASSAS*      CLEAR    N/A N/A N/A N6        30.10S
GAITHERSBURG*  CLOUDY    43  32  65 NW7       30.12R

$$

MDZ006>007-011-014-190400-
BALTIMORE METRO

CITY           SKY/WX    TMP DP  RH WIND       PRES   REMARKS
BWI AIRPORT    CLOUDY    47  37  68 NW7       30.06F
MD SCIENCE CTR   N/A     49  35  58 MISG      30.06F
MARTIN STATE   CLOUDY    48  41  76 W10       30.07F
ANNAPOLIS      CLOUDY    49  36  61 NW6       30.06F
FORT MEADE*    CLOUDY    45  36  70 NW3       30.09S

$$

MDZ012-015-019>023-190400-
MARYLAND EASTERN SHORE

CITY           SKY/WX    TMP DP  RH WIND       PRES   REMARKS
OCEAN CITY     CLOUDY    46  43  89 N7        30.04
SALISBURY      CLOUDY    49  40  71 E3        30.04S
BAY BRIDGE AP* CLOUDY    46  37  71 NW7       30.05F
CAMBRIDGE*     CLOUDY    48  37  66 N7        30.05S
EASTON*        CLOUDY    50  37  62 N5        30.09F

$$

MDZ017>025-190400-
SOUTHERN MARYLAND

CITY           SKY/WX    TMP DP  RH WIND       PRES   REMARKS
PATUXENT RIVER CLOUDY    48  37  65 NW10      30.05S
ST INIGOES     MOCLDY    48  37  65 CALM      30.05S
LEONARDTOWN*   CLOUDY    46  36  66 NW3       30.07S

$$

MDZ003>005-190400-
NORTH CENTRAL MARYLAND

CITY           SKY/WX    TMP DP  RH WIND       PRES   REMARKS
FREDERICK*     PTCLDY    36  36 100 SW3       30.11S
HAGERSTOWN APT PTCLDY    43  34  70 W13       30.07S
WESTMINSTER*   CLOUDY    43  36  75 W5        30.05S

$$

MDZ501>502-190400-
WESTERN MARYLAND

CITY           SKY/WX    TMP DP  RH WIND       PRES   REMARKS
OAKLAND*       FOG       32  32 100 W8        30.03F VSB 1/2 WCI  25
CUMBERLAND*    CLOUDY    43  36  75 W6        30.13S

$$

VAZ025>031-190400-
SHENANDOAH VALLEY

CITY           SKY/WX    TMP DP  RH WIND       PRES   REMARKS
WINCHESTER*    CLOUDY    41  34  75 NW8       30.09S
FRONT ROYAL*   CLOUDY    43  36  75 CALM      30.08S
LURAY*         CLEAR     37  36  93 NE5       30.08R
NEW MARKET*    CLEAR     32  30  91 NE3       30.07S
STAUNTON*      CLEAR     33  31  90 CALM      30.08F
WAYNESBORO*    CLEAR     39  33  80 CALM      30.06F

$$

WVZ021-048>050-054>055-190400-
EASTERN WEST VIRGINIA PANHANDLE

CITY           SKY/WX    TMP DP  RH WIND       PRES   REMARKS
MARTINSBURG    CLOUDY    44  34  67 NW8       30.08F
PETERSBURG*    PTCLDY    36  34  90 CALM      30.09F

$$

VAZ036>039-050-190400-
CENTRAL FOOTHILLS

CITY           SKY/WX    TMP DP  RH WIND       PRES   REMARKS
CHARLOTTESVILL CLEAR     46  35  65 NE6       30.06R
CULPEPER*      CLEAR     44  36  74 N8        30.09S
ORANGE*          N/A     43  36  75 CALM      30.09S
GORDONSVILLE*  CLEAR     37  34  90 CALM      30.07R
WARRENTON*     CLEAR     45  33  62 N8        30.08S

$$

VAZ055>057-190400-
NORTH AND CENTRAL PIEDMONT

CITY           SKY/WX    TMP DP  RH WIND       PRES   REMARKS
FREDERICKSBRG* CLEAR     46  37  70 N6        30.08S
STAFFORD*      CLEAR     44  36  72 N8        30.12S

$$

NCZ024-NYZ072-PAZ021-071-VAZ022-071-190400-
OTHER REGIONAL OBSERVATIONS

CITY           SKY/WX    TMP DP  RH WIND       PRES   REMARKS
NEW YORK CITY  CLOUDY    40  36  86 N8        30.05S
PHILADELPHIA   CLOUDY    45  38  76 N3        30.05S
PITTSBURGH     DRIZZLE   38  37  97 SW8       30.08S
ROANOKE        PTCLDY    44  36  73 W9        30.11R
RICHMOND       CLEAR     47  37  68 N8        30.06S
RALEIGH        CLOUDY    52  34  50 N3        30.06R

$$

ANZ530>537-190400-
MARINE OBSERVATIONS

STATION/POSITION TIME  TEMP    WIND        PRES
                       AIR SEA DIR/SP/G
                 (UTC) (F)     (DEG/KT/KT) (MB)
THOMAS PT LIGHT  0300   48 39  320/ 13/ 15   N/A
BALT KEY BRIDGE  0248   47     290/ 10/ 11 1017.9F
COVE POINT       0248   45     350/ 12/ 14 1018.1F
LEWISETTA        0248   48 43  350/  8/ 11 1017.5S
SOLOMONS ISLAND  0248   48 41  320/  6/  8   N/A
PINEY POINT      0248          360/ 10/ 11   N/A

$$





USA.gov is the U.S. government's official web portal to all federal, state and local government web resources and services.